Wind_Speed
19 20 21 24 24 24 22 13 19 30 34 33 29 26 24 22 20 17 18 20 21 22 23 24 26 29 30 28 21 23 15 12
15 16 20 17 25 25 21 28 27 27 34 32 29 25 24 22 20 20 20 21 21 22 24 26 27 28 30 24 23 14 11 12
12 14 15 16 23 24 20 19 15 22 36 32 28 27 24 24 22 21 21 20 21 22 24 25 25 29 28 26 22 14 19 10
10 11 13 17 21 20 16 14 11 15 33 30 30 29 27 22 21 22 21 22 21 22 23 24 26 31 25 22 23 18 11 8
9 9 14 17 18 14 19 15 16 18 31 32 28 28 28 27 30 26 24 22 22 23 24 24 29 29 22 17 20 12 9 7
9 12 15 16 14 18 19 27 19 23 26 30 32 34 28 28 28 28 27 24 23 23 23 20 26 22 12 16 19 14 9 6
8 10 16 18 15 17 18 18 27 26 28 34 34 33 30 25 28 30 28 25 23 24 22 18 16 15 14 19 12 15 9 6
9 9 12 15 19 18 22 26 28 30 37 35 35 33 29 27 29 32 28 23 24 21 18 18 17 15 16 17 13 10 6 4
9 9 12 15 20 22 21 25 26 33 35 25 36 35 30 29 30 31 25 19 17 19 19 18 18 17 18 18 16 16 9 7
9 9 14 16 19 20 19 23 28 35 35 33 39 35 31 30 31 28 25 26 20 20 20 19 19 17 18 19 17 19 14 9
10 11 14 16 17 17 17 23 38 37 40 35 46 39 31 30 30 27 26 31 28 22 20 20 21 20 18 17 16 16 18 19
13 12 12 13 13 15 13 20 36 46 42 43 40 37 34 31 26 25 29 25 24 21 23 21 21 21 17 17 17 15 16 16
18 17 15 14 12 14 16 30 39 42 43 40 32 35 36 34 25 23 26 24 24 22 22 22 19 21 19 19 17 18 17 17
19 17 17 14 14 24 34 36 38 42 38 40 34 37 37 34 29 30 27 23 21 22 22 22 20 22 21 21 16 16 21 24
23 22 19 14 15 26 29 36 39 42 39 41 38 33 34 31 32 34 31 28 24 20 25 24 25 23 26 19 16 16 23 24
21 24 24 19 19 26 34 37 39 45 49 45 39 36 37 39 33 33 31 28 25 26 26 26 22 24 25 28 24 18 7 6
22 27 26 26 25 29 34 34 37 46 46 45 45 40 39 41 38 32 35 31 27 29 29 28 27 24 27 23 28 26 21 16
23 27 29 31 30 30 35 35 39 46 51 49 45 44 44 43 40 35 30 29 33 27 26 27 29 31 25 21 21 23 25 20
25 27 33 36 34 32 33 36 39 42 50 56 54 49 47 49 40 40 37 34 35 38 35 32 32 32 30 29 28 27 24 24
27 29 29 36 36 35 35 37 38 41 41 53 59 55 47 50 48 42 43 36 40 39 38 38 36 36 33 34 32 31 29 29
Wind_Direction
224 227 222 225 226 227 225 206 199 197 180 176 169 165 167 169 176 173 166 152 148 148 145 146 144 140 139 130 124 127 137 137
236 229 226 223 220 230 236 212 226 232 181 170 165 167 169 168 165 161 155 151 151 150 148 147 143 139 136 123 116 126 127 137
257 232 224 217 214 222 222 220 236 224 176 164 162 162 165 161 159 160 157 155 152 154 150 146 145 141 132 125 122 124 149 169
262 219 212 208 201 209 215 231 239 199 171 166 168 166 165 157 168 164 161 156 155 152 148 145 141 137 135 124 121 152 172 203
246 211 200 218 199 203 221 206 170 164 165 160 165 163 162 166 166 165 163 158 155 151 149 146 142 139 127 125 127 170 190 193
230 216 200 213 194 197 196 171 167 180 164 165 168 167 170 170 169 166 166 163 159 150 140 134 149 132 117 145 135 166 195 203
236 221 198 190 187 182 183 184 188 194 189 174 169 170 173 176 173 171 168 166 159 144 134 158 150 140 153 157 131 179 205 219
225 197 190 203 183 185 184 184 189 193 183 184 179 180 168 180 180 176 171 169 160 140 148 162 164 157 164 150 149 160 206 193
195 192 191 208 194 195 196 196 201 197 193 189 179 174 167 184 183 177 171 169 162 150 173 165 167 174 162 163 166 153 185 230
197 189 187 199 214 220 217 214 214 211 210 191 178 170 179 180 176 171 168 185 167 181 175 168 172 174 175 170 172 166 171 200
197 203 195 196 204 217 230 231 207 215 201 188 175 171 174 183 184 177 176 188 176 186 174 175 178 180 185 178 177 177 193 182
205 199 190 205 208 219 219 225 204 196 184 172 176 171 186 179 179 183 180 173 172 186 175 182 188 184 189 189 184 198 215 196
211 198 200 200 197 200 200 169 166 179 169 163 173 192 190 180 180 177 180 178 183 181 180 189 188 190 193 191 197 203 219 222
202 206 196 190 180 181 171 176 162 161 165 171 179 193 192 189 185 183 184 179 187 192 191 196 193 196 197 193 197 219 222 220
204 204 196 193 178 181 175 169 165 170 170 175 191 193 195 188 194 198 187 189 188 202 208 199 195 201 201 197 197 216 234 241
203 199 199 195 187 187 186 182 184 179 174 182 190 197 191 194 203 201 197 194 192 214 218 202 198 211 212 203 211 219 262 217
208 199 195 196 193 194 196 198 198 187 184 187 191 195 195 200 197 201 198 200 198 215 221 217 204 209 226 221 223 233 249 249
208 200 196 198 196 199 199 200 198 194 194 197 195 198 206 206 203 201 203 212 210 215 219 226 223 216 218 228 236 237 247 255
205 203 199 199 201 204 205 205 206 206 205 203 201 202 206 212 215 212 213 216 220 219 218 224 230 231 232 235 232 240 246 247
214 205 203 202 202 208 210 208 211 213 215 212 208 208 210 213 221 222 221 225 227 226 227 231 234 238 237 243 246 247 248 252
Height
1468 1469 1473 1476 1480 1482 1484 1467 1488 1491 1497 1501 1506 1513 1517 1522 1526 1530 1531 1533 1536 1538 1540 1544 1549 1552 1558 1562 1563 1567 1567 1568
1465 1467 1469 1472 1475 1477 1477 1483 1493 1478 1494 1502 1505 1512 1518 1521 1526 1531 1533 1536 1538 1540 1543 1546 1549 1555 1560 1563 1566 1569 1569 1569
1463 1465 1467 1468 1469 1472 1474 1480 1483 1465 1495 1499 1506 1512 1519 1523 1527 1532 1534 1537 1538 1543 1545 1547 1552 1557 1562 1564 1568 1571 1569 1570
1460 1463 1466 1465 1467 1471 1477 1480 1480 1469 1496 1497 1506 1513 1518 1521 1527 1533 1537 1538 1542 1545 1547 1549 1554 1558 1562 1565 1568 1571 1571 1572
1459 1460 1464 1464 1466 1470 1472 1477 1483 1478 1492 1497 1507 1514 1519 1525 1527 1533 1537 1540 1543 1546 1547 1550 1555 1560 1564 1567 1569 1571 1571 1573
1456 1458 1463 1464 1468 1470 1473 1478 1481 1491 1496 1501 1508 1513 1519 1523 1527 1531 1536 1541 1545 1547 1549 1551 1557 1560 1565 1568 1570 1570 1570 1574
1454 1455 1459 1465 1468 1472 1475 1477 1482 1487 1495 1503 1507 1513 1519 1524 1526 1531 1536 1540 1544 1548 1549 1554 1558 1562 1566 1569 1570 1570 1571 1574
1453 1454 1457 1461 1467 1470 1475 1478 1480 1481 1493 1500 1504 1512 1517 1525 1527 1531 1536 1540 1544 1548 1550 1554 1559 1562 1565 1568 1570 1571 1571 1574
1451 1454 1457 1460 1464 1470 1474 1478 1481 1484 1490 1495 1504 1510 1515 1522 1527 1532 1535 1540 1544 1548 1552 1555 1559 1562 1565 1567 1569 1572 1571 1573
1450 1452 1455 1459 1463 1467 1471 1474 1478 1481 1488 1495 1502 1508 1517 1522 1526 1530 1534 1539 1543 1548 1549 1554 1558 1561 1565 1566 1568 1570 1574 1574
1449 1451 1454 1457 1461 1464 1468 1470 1470 1475 1483 1490 1499 1506 1514 1520 1524 1528 1533 1537 1541 1546 1548 1553 1556 1560 1563 1566 1568 1569 1572 1574
1448 1450 1453 1455 1458 1460 1463 1466 1468 1472 1478 1488 1497 1504 1512 1515 1522 1525 1531 1535 1539 1544 1548 1552 1556 1559 1562 1564 1566 1569 1570 1572
1447 1449 1451 1453 1455 1457 1460 1463 1465 1471 1481 1490 1498 1505 1510 1514 1519 1523 1529 1533 1538 1542 1547 1550 1553 1557 1560 1563 1565 1568 1569 1569
1445 1447 1449 1452 1455 1458 1461 1464 1470 1476 1484 1489 1497 1503 1510 1513 1519 1524 1530 1534 1538 1541 1543 1548 1551 1554 1556 1560 1563 1567 1566 1566
1443 1445 1449 1451 1455 1460 1464 1467 1473 1478 1483 1491 1497 1502 1507 1513 1519 1524 1529 1532 1535 1538 1542 1546 1547 1551 1554 1556 1559 1559 1559 1559
1440 1444 1447 1451 1455 1459 1463 1467 1470 1476 1482 1488 1495 1501 1506 1512 1517 1521 1525 1527 1531 1536 1539 1542 1545 1547 1551 1552 1553 1553 1555 1556
1436 1441 1445 1449 1453 1457 1462 1467 1471 1477 1481 1486 1491 1498 1503 1508 1513 1517 1520 1523 1527 1530 1534 1537 1540 1544 1546 1547 1549 1550 1551 1553
1434 1437 1441 1445 1450 1455 1460 1464 1468 1474 1479 1483 1488 1493 1498 1503 1507 1511 1516 1518 1523 1527 1529 1531 1534 1538 1541 1543 1543 1545 1546 1547
1430 1433 1437 1441 1446 1451 1456 1461 1466 1470 1475 1479 1484 1488 1493 1497 1502 1507 1510 1513 1518 1522 1523 1526 1529 1532 1535 1538 1538 1539 1540 1543
1427 1430 1433 1437 1441 1446 1451 1456 1461 1465 1470 1474 1479 1483 1488 1493 1497 1501 1505 1509 1513 1515 1518 1519 1523 1525 1528 1531 1533 1534 1535 1537